カタログに戻る

COSMOS 509

運用中軍事LEO
NORAD 6122·PAYLOAD·🇷🇺 Russia

打ち上げ Jul 20, 1972 から Plesetsk Cosmodrome

Loading…

次のパス (今後24時間)

TLE

最新Source: Space-Track

元期: Sep 14, 2026, 07:23 UTC

1 06122U 72057F   26257.30797667 -.00000013  00000-0  21162-4 0  9990
2 06122  74.0247 104.3146 0015877 206.9507 266.0695 12.44998389461083

AllMySatでCOSMOS 509をリアルタイム追跡

Download on the App Store